VU3OPZ-13 Weather Reports


time (UTC)temp
F
wind
direction
speed
knots
gust
knots
rain 1hr
in
rain 24hr
in
rain mn
in
humidity
%
barometer
mb
20260504045139 91 303 8.7 0.0 0.00 0.00 0.00 24 1010.0
20260504042134 85 297 7.8 0.0 0.00 0.00 0.00 36 1011.0
20260504035130 85 297 7.8 0.0 0.00 0.00 0.00 37 1011.0
20260504032126 79 286 5.2 0.0 0.00 0.00 0.00 56 1011.0
20260504025121 79 286 5.2 0.0 0.00 0.00 0.00 55 1011.0
20260504022116 74 277 5.2 0.0 0.00 0.00 0.00 75 1010.0
20260504015111 74 277 5.2 0.0 0.00 0.00 0.00 75 1010.0
20260504012107 71 270 4.3 0.0 0.00 0.00 0.00 87 1010.0
20260504005101 72 270 4.3 0.0 0.00 0.00 0.00 87 1009.0
20260504002057 72 268 7.0 0.0 0.00 0.00 0.00 87 1009.0
20260503235052 72 261 4.3 0.0 0.00 0.00 0.00 87 1009.0
20260503232048 72 267 7.8 0.0 0.00 0.00 0.00 86 1008.0
20260503225043 72 267 7.8 0.0 0.00 0.00 0.00 86 1008.0
20260503222039 73 267 9.6 0.0 0.00 0.00 0.00 84 1008.0
20260503215034 73 267 9.6 0.0 0.00 0.00 0.00 84 1008.0
20260503212029 74 272 9.6 0.0 0.00 0.00 0.00 81 1008.0
20260503205025 74 272 9.6 0.0 0.00 0.00 0.00 81 1008.0
20260503202019 74 274 9.6 0.0 0.00 0.00 0.00 78 1008.0
20260503195015 74 274 9.6 0.0 0.00 0.00 0.00 78 1008.0
20260503192010 76 274 9.6 0.0 0.00 0.00 0.00 74 1009.0
20260503185006 76 274 9.6 0.0 0.00 0.00 0.00 73 1009.0
20260503182001 77 274 10.4 0.0 0.00 0.00 0.00 67 1009.0
20260503174957 77 274 10.4 0.0 0.00 0.00 0.00 67 1009.0
20260503171952 79 273 11.3 0.0 0.00 0.00 0.00 59 1009.0
20260503072042 99 315 5.2 0.0 0.00 0.00 0.00 15 1007.0